[[{"header":{"parameterUnit":"m.s-1","parameterCategory":1,"la1":30.2991,"la2":30.254,"lo1":-89.0895,"lo2":-89.0444,"dx":0.0017,"dy":0.0017,"nx":28,"ny":28,"refTime":"2022-12-15T09:00:00:Z","depth":0,"parameterNumber":2,"parameterNumberName":"U-component_of_WINDS"},"data":[0,0,0,0,0,0,0,0,0,0,0,0,0,0,0,0,0,0,0,0,0,0,0,0,0,0,0,0,0,0,0,0,0,0,0,0,0,0,0,0,0,0,0,0,0,0,0,0,0,0,0,0,0,0,0,0,0,0,2.7485,2.7486,0,2.7572,2.7573,2.7574,2.7545,2.7543,2.7541,2.754,2.7627,2.7631,2.7635,0,0,0,0,0,0,0,0,0,0,0,0,0,2.7295,2.7299,2.7485,2.7486,2.7488,2.7571,2.7573,2.7574,2.7546,2.7543,2.7541,2.7539,2.7626,2.763,2.7635,0,0,0,0,0,0,0,0,0,0,0,0,0,2.7379,2.73,2.7485,2.7484,2.7484,2.7571,2.7573,2.7574,2.7546,2.7543,2.754,2.7538,2.7624,2.763,2.7636,2.7729,0,0,2.7655,2.7657,0,0,0,0,0,0,0,0,2.7374,2.7386,2.7483,2.7484,2.7485,2.7545,2.7537,2.7626,2.7547,2.7523,2.754,2.7536,2.7602,2.761,2.7632,2.7733,2.7737,2.7655,2.7659,2.7661,2.7663,0,0,0,0,0,0,0,2.7369,2.7382,2.7519,2.7484,2.7485,2.7478,2.7487,2.7554,2.7577,2.7524,2.7523,2.7533,2.7602,2.7626,2.7634,2.7738,2.7655,2.766,2.7664,2.7666,2.7919,2.7922,0,0,0,0,0,0,2.7362,2.7378,2.7517,2.7522,2.7422,2.7484,2.7494,2.7528,2.7576,2.7581,2.7536,2.7532,2.7617,2.7627,2.7637,2.7748,2.7661,2.7667,2.7671,2.7916,2.792,2.7923,0,0,0,0,0,0,2.7358,2.7375,2.7513,2.7449,2.7466,2.749,2.7529,2.7532,2.7556,2.7584,2.7588,2.7556,2.7615,2.7628,2.7706,2.775,2.767,2.7675,2.7913,2.7918,2.7922,2.7971,0,0,0,0,0,0,2.7353,2.7374,2.741,2.745,2.747,2.7582,2.7532,2.7535,2.7566,2.7562,2.7605,2.7609,2.7614,2.7697,2.7712,2.7757,2.768,2.7909,2.7915,2.792,2.7966,2.7977,2.7987,0,0,0,0,0,2.7346,2.742,2.7412,2.7429,2.7516,2.7585,2.7596,2.76,2.757,2.7606,2.7624,2.7608,2.7744,2.7706,2.7722,2.777,2.7906,2.7913,2.792,2.7961,2.7975,2.7986,0,0,0,0,0,0,2.7384,2.7426,2.7416,2.7506,2.7542,2.758,2.7625,2.7615,2.766,2.7654,2.7657,2.7667,2.7747,2.7766,2.7723,2.7862,2.782,2.7831,2.7846,2.7859,2.7869,2.7862,2.7685,0,0,0,0,0,2.7403,2.7456,2.7489,2.7565,2.7584,2.7602,2.7632,2.7632,2.7669,2.7684,2.7708,2.7745,2.7795,2.7829,2.7877,2.7969,2.7977,2.801,2.802,2.8029,2.8037,2.8086,2.81,2.7946,2.7946,2.7946,0,0,2.7442,2.7471,2.7505,2.7573,2.7601,2.7655,2.7614,2.7674,2.7713,2.7693,2.7768,2.7787,2.7828,2.7913,2.7952,2.7932,2.8082,2.8038,2.8044,2.8048,2.8094,2.8109,2.8122,2.7951,2.795,2.7949,0,0,2.7541,2.7569,2.7634,2.7663,2.7706,2.7717,2.7733,2.7773,2.7784,2.786,2.7845,2.7893,2.7981,2.801,2.8036,2.8146,2.8131,2.8162,2.8215,2.8262,2.8274,2.8285,2.8322,2.8336,2.817,2.817,2.817,0,2.7584,2.7665,2.7669,2.773,2.776,2.7744,2.781,2.7838,2.7894,2.7915,2.7892,2.8001,2.8027,2.8118,2.8145,2.8168,2.8185,2.8156,2.8272,2.8283,2.8293,2.8329,2.8343,2.8174,2.8173,2.8173,2.8173,0,2.7715,2.7772,2.7819,2.7874,2.791,2.7972,2.7986,2.8021,2.8019,2.8032,2.8109,2.814,2.8194,2.8216,2.8214,2.8306,2.8292,2.8271,2.8229,2.8311,2.8344,2.8358,2.8178,2.8177,2.8176,2.8175,0,0,2.7839,2.7895,2.7912,2.7936,2.7982,2.8026,2.8088,2.8141,2.817,2.821,2.8261,2.8335,2.8316,2.8345,2.8347,2.8389,2.8471,2.8362,2.8363,2.8379,2.8573,2.8587,2.8602,2.8463,2.8466,2.8468,2.8568,0,2.794,2.8048,2.8054,2.8152,2.8203,2.819,2.8243,2.8277,2.8292,2.8337,2.8353,2.8405,2.8376,2.8394,2.8435,2.8453,2.851,2.8446,2.8509,2.8511,2.8497,2.862,2.8636,2.8729,2.8582,2.8584,2.8586,0,2.8072,2.8115,2.8218,2.8256,2.8278,2.8326,2.8374,2.8418,2.8456,2.8463,2.8497,2.8492,2.8554,2.8512,2.8597,2.8553,2.8579,2.8592,2.8596,2.86,2.8552,2.8626,2.8759,2.8772,2.8607,2.8605,2.8603,0,2.8149,2.8234,2.8306,2.8327,2.8374,2.8407,2.8428,2.8463,2.8494,2.8537,2.8556,2.8606,2.8632,2.867,2.8678,2.8647,2.8763,2.8721,2.8769,2.8769,2.8792,2.879,2.893,2.8813,2.8813,2.8813,2.8813,0,2.826,2.8324,2.8341,2.8385,2.8455,2.8461,2.853,2.8549,2.858,2.8627,2.8619,2.8663,2.8672,2.8718,2.8726,2.8794,2.8806,2.8813,2.8814,2.8813,2.8811,2.8828,2.8821,2.8817,2.8816,2.8815,2.8814,0,2.8358,2.8373,2.845,2.8487,2.8498,2.8548,2.858,2.8622,2.8636,2.8695,2.8709,2.8731,2.8784,2.8797,2.8861,2.8865,2.8945,2.8941,2.8932,2.8931,2.8978,2.8973,2.9131,2.9151,2.9024,2.9025,2.9026,0,2.8427,2.8475,2.8517,2.8548,2.857,2.8621,2.8652,2.866,2.8693,2.8739,2.8775,2.8828,2.887,2.8956,2.8977,2.9025,2.902,2.9073,2.9028,2.9024,2.9019,2.9015,2.9019,2.9081,2.9082,2.9083,2.9084,0,2.8547,2.8551,2.8597,2.8645,2.8683,2.8721,2.8758,2.8784,2.8796,2.8834,2.8888,2.8921,2.8986,2.9038,2.9087,2.9107,2.9097,2.9099,2.9112,2.911,2.9102,2.9104,2.8953,2.9094,2.9093,2.9093,2.9092,2.9092,2.863,2.8672,2.8708,2.8759,2.8787,2.8822,2.8862,2.8881,2.8927,2.898,2.8982,2.9041,2.9077,2.9141,2.9165,2.921,2.9194,2.9214,2.9218,2.9223,2.9225,2.9097,2.9219,2.9219,2.9219,2.9219,2.9218,0,2.8748,2.877,2.8817,2.8868,2.8908,2.8897,2.8936,2.897,2.9022,2.9056,2.9098,2.916,2.921,2.9235,2.9284,2.9316,2.9312,2.9328,2.9325,2.9329,2.9238,2.9221,2.933,2.933,2.933,2.933,2.933,2.933,2.8814,2.8882,2.8891,2.8974,2.8996,2.9054,2.9077,2.9108,2.9135,2.9205,2.9246,2.9262,2.9292,2.9344,2.9389,2.9395,2.9412,2.943,2.9433,2.9347,2.9336,2.9325,2.9308,2.9434,2.9434,2.952,2.9521,2.9522]},{"header":{"parameterUnit":"m.s-1","parameterCategory":1,"la1":30.2991,"la2":30.254,"lo1":-89.0895,"lo2":-89.0444,"dx":0.0017,"dy":0.0017,"nx":28,"ny":28,"refTime":"2022-12-15T09:00:00:Z","depth":0,"parameterNumber":3,"parameterNumberName":"V-component_of_WINDS"},"data":[0,0,0,0,0,0,0,0,0,0,0,0,0,0,0,0,0,0,0,0,0,0,0,0,0,0,0,0,0,0,0,0,0,0,0,0,0,0,0,0,0,0,0,0,0,0,0,0,0,0,0,0,0,0,0,0,0,0,-1.6642,-1.6643,0,-1.6751,-1.6753,-1.6754,-1.6776,-1.6775,-1.6774,-1.6773,-1.6886,-1.689,-1.6894,0,0,0,0,0,0,0,0,0,0,0,0,0,-1.6454,-1.6457,-1.6642,-1.6644,-1.6645,-1.6751,-1.6753,-1.6754,-1.6776,-1.6775,-1.6774,-1.6773,-1.6885,-1.689,-1.6894,0,0,0,0,0,0,0,0,0,0,0,0,0,-1.6547,-1.6458,-1.6642,-1.6669,-1.6672,-1.6751,-1.6753,-1.6755,-1.6776,-1.6775,-1.6774,-1.6773,-1.6884,-1.6889,-1.6895,-1.6955,0,0,-1.6912,-1.6915,0,0,0,0,0,0,0,0,-1.6541,-1.6553,-1.6663,-1.6667,-1.6671,-1.6749,-1.6728,-1.6822,-1.6777,-1.6737,-1.6773,-1.6772,-1.6842,-1.6851,-1.6874,-1.696,-1.6965,-1.6913,-1.6916,-1.6918,-1.692,0,0,0,0,0,0,0,-1.6535,-1.6549,-1.6685,-1.6665,-1.667,-1.6675,-1.6687,-1.6746,-1.6795,-1.674,-1.6742,-1.6755,-1.6843,-1.6868,-1.6877,-1.6967,-1.6912,-1.6917,-1.6921,-1.6923,-1.7108,-1.711,0,0,0,0,0,0,-1.6523,-1.6543,-1.6682,-1.6689,-1.6602,-1.668,-1.6693,-1.6725,-1.6794,-1.6804,-1.6755,-1.6755,-1.6859,-1.687,-1.6881,-1.6956,-1.6918,-1.6924,-1.6927,-1.7107,-1.7109,-1.711,0,0,0,0,0,0,-1.6519,-1.6536,-1.6678,-1.6617,-1.6635,-1.6684,-1.672,-1.6728,-1.6753,-1.6806,-1.6815,-1.6772,-1.6859,-1.6873,-1.6936,-1.696,-1.6926,-1.6931,-1.7105,-1.7107,-1.7109,-1.7107,0,0,0,0,0,0,-1.6514,-1.6534,-1.6557,-1.6617,-1.6638,-1.6731,-1.6722,-1.6731,-1.6762,-1.6763,-1.6824,-1.6833,-1.6859,-1.6928,-1.6942,-1.6967,-1.6936,-1.7103,-1.7106,-1.7109,-1.7105,-1.7108,-1.7112,0,0,0,0,0,-1.6507,-1.6552,-1.6558,-1.6575,-1.6668,-1.6732,-1.6744,-1.6773,-1.6764,-1.6788,-1.6822,-1.6831,-1.6955,-1.6934,-1.695,-1.6978,-1.7102,-1.7105,-1.7109,-1.7103,-1.7108,-1.7111,0,0,0,0,0,0,-1.6494,-1.6561,-1.6568,-1.6634,-1.6677,-1.6736,-1.6767,-1.6777,-1.6825,-1.6823,-1.6858,-1.6871,-1.6933,-1.6962,-1.6937,-1.704,-1.7028,-1.7035,-1.7018,-1.7023,-1.7027,-1.7018,-1.6941,0,0,0,0,0,-1.6499,-1.6545,-1.6601,-1.6654,-1.6675,-1.6717,-1.6746,-1.6765,-1.6811,-1.683,-1.6868,-1.6914,-1.6963,-1.6995,-1.7043,-1.7109,-1.7123,-1.7136,-1.714,-1.7142,-1.7147,-1.7185,-1.7191,-1.7121,-1.7121,-1.7121,0,0,-1.651,-1.6552,-1.6579,-1.6652,-1.6688,-1.6735,-1.6732,-1.6782,-1.6818,-1.6837,-1.69,-1.693,-1.6982,-1.7047,-1.7078,-1.7073,-1.717,-1.7146,-1.7148,-1.7152,-1.7189,-1.7195,-1.7201,-1.7124,-1.7123,-1.7123,0,0,-1.6553,-1.6589,-1.6637,-1.6673,-1.6727,-1.6755,-1.6766,-1.6823,-1.6844,-1.6907,-1.6922,-1.6965,-1.705,-1.7087,-1.7116,-1.7174,-1.7183,-1.7188,-1.7206,-1.7242,-1.7247,-1.7253,-1.7273,-1.728,-1.7194,-1.7194,-1.7194,0,-1.6559,-1.6631,-1.666,-1.671,-1.6742,-1.6761,-1.681,-1.6843,-1.6911,-1.6932,-1.6926,-1.7033,-1.707,-1.7143,-1.7157,-1.7181,-1.7195,-1.7181,-1.7244,-1.725,-1.7255,-1.7275,-1.7282,-1.7194,-1.7194,-1.7194,-1.7194,0,-1.6636,-1.6685,-1.6717,-1.6781,-1.6817,-1.6865,-1.6903,-1.6936,-1.6951,-1.6979,-1.7043,-1.7088,-1.7146,-1.7165,-1.7181,-1.7241,-1.7237,-1.7237,-1.7226,-1.7261,-1.728,-1.7288,-1.7194,-1.7194,-1.7194,-1.7194,0,0,-1.6674,-1.6753,-1.6765,-1.6794,-1.6855,-1.6894,-1.6944,-1.7,-1.7027,-1.7073,-1.7116,-1.7187,-1.7187,-1.7221,-1.7241,-1.7273,-1.7315,-1.7269,-1.7271,-1.7276,-1.7385,-1.7384,-1.7392,-1.7322,-1.7324,-1.7325,-1.738,0,-1.6724,-1.6813,-1.6841,-1.6916,-1.6962,-1.6981,-1.7025,-1.7067,-1.7095,-1.7138,-1.717,-1.7219,-1.7216,-1.7237,-1.7269,-1.7303,-1.7337,-1.73,-1.7362,-1.7364,-1.7348,-1.7402,-1.7401,-1.7451,-1.7388,-1.7389,-1.739,0,-1.6795,-1.6841,-1.692,-1.6975,-1.6995,-1.7034,-1.7088,-1.7129,-1.7177,-1.7196,-1.7233,-1.7251,-1.7304,-1.729,-1.7364,-1.7338,-1.7366,-1.7386,-1.7389,-1.7396,-1.7379,-1.741,-1.7468,-1.7475,-1.7402,-1.7401,-1.74,0,-1.6814,-1.6896,-1.6954,-1.6979,-1.7045,-1.7071,-1.71,-1.7147,-1.7179,-1.7227,-1.7248,-1.73,-1.7329,-1.737,-1.7402,-1.7389,-1.7473,-1.7462,-1.749,-1.7489,-1.7507,-1.7505,-1.757,-1.7525,-1.7525,-1.7525,-1.7524,0,-1.6867,-1.6915,-1.6964,-1.6999,-1.7053,-1.7085,-1.7138,-1.7168,-1.721,-1.7252,-1.7272,-1.7311,-1.7351,-1.7395,-1.7421,-1.7478,-1.7491,-1.7508,-1.7514,-1.7506,-1.7504,-1.7524,-1.7521,-1.7527,-1.7526,-1.7526,-1.7525,0,-1.6898,-1.6933,-1.6997,-1.7054,-1.7069,-1.7107,-1.7156,-1.7191,-1.722,-1.7273,-1.7287,-1.7333,-1.7386,-1.7422,-1.749,-1.7507,-1.757,-1.7575,-1.7553,-1.7556,-1.7582,-1.7579,-1.7662,-1.7674,-1.7621,-1.7621,-1.7622,0,-1.6929,-1.6966,-1.7027,-1.7056,-1.7085,-1.7132,-1.7165,-1.7198,-1.7231,-1.7289,-1.7318,-1.7372,-1.7418,-1.7502,-1.7542,-1.7595,-1.7601,-1.7627,-1.7609,-1.76,-1.7602,-1.7599,-1.7603,-1.7629,-1.763,-1.763,-1.763,0,-1.6982,-1.6997,-1.7043,-1.7095,-1.7133,-1.7175,-1.7218,-1.7241,-1.7282,-1.7318,-1.7373,-1.7408,-1.7478,-1.7532,-1.7588,-1.7619,-1.7632,-1.7636,-1.7645,-1.7637,-1.7622,-1.7631,-1.756,-1.7633,-1.7633,-1.7633,-1.7633,-1.7633,-1.7014,-1.7047,-1.7095,-1.7146,-1.7181,-1.7221,-1.7257,-1.729,-1.7336,-1.7394,-1.7412,-1.7468,-1.7517,-1.7593,-1.7625,-1.767,-1.7668,-1.7681,-1.7685,-1.7687,-1.7687,-1.7615,-1.768,-1.768,-1.768,-1.768,-1.768,0,-1.7067,-1.7098,-1.7144,-1.7203,-1.7243,-1.7251,-1.7299,-1.7332,-1.7381,-1.7425,-1.7469,-1.7532,-1.7584,-1.7628,-1.7682,-1.771,-1.7718,-1.7724,-1.7722,-1.7729,-1.7686,-1.7673,-1.7717,-1.7717,-1.7717,-1.7717,-1.7717,-1.7717,-1.7099,-1.7156,-1.7177,-1.7252,-1.7284,-1.7339,-1.7366,-1.7402,-1.7437,-1.7506,-1.755,-1.7578,-1.7622,-1.7679,-1.7728,-1.774,-1.7759,-1.7763,-1.7776,-1.7736,-1.7732,-1.7728,-1.7715,-1.7767,-1.7767,-1.7815,-1.7815,-1.7815]}]]